Wetterdaten: aktuell Donnerstag, 19.04.2018 13:10
Datum Zeit Temp. A. Temp. A. min Feuchte A. Luftdruck Regen Wind Richtung Richtung Sonnenschein Solar Taupunkt Windchill Windben
19.04.2018 13:10 27,2 C 26,9 C 28 % 1034,0 hPa 0,0 l/m 11,4 km/h (2 Bft) NO 54 0 min 0 W/m 7,1 C 27,2 C 19,3 km/h (3 Bft)
19.04.2018 13:05 26,9 C 26,9 C 30 % 1034,1 hPa 0,0 l/m 4,5 km/h (1 Bft) O 99 0 min 0 W/m 7,8 C 26,9 C 14,5 km/h (3 Bft)
19.04.2018 13:00 26,9 C 26,8 C 29 % 1034,1 hPa 0,0 l/m 6,9 km/h (2 Bft) S-SO 150 0 min 0 W/m 7,3 C 26,9 C 17,7 km/h (3 Bft)
19.04.2018 12:55 26,8 C 26,7 C 31 % 1034,2 hPa 0,0 l/m 8,0 km/h (2 Bft) O 84 0 min 0 W/m 8,2 C 26,8 C 16,1 km/h (3 Bft)
19.04.2018 12:50 26,8 C 26,5 C 31 % 1034,2 hPa 0,0 l/m 7,6 km/h (2 Bft) O 83 0 min 0 W/m 8,2 C 26,8 C 16,1 km/h (3 Bft)
19.04.2018 12:45 26,5 C 25,9 C 32 % 1034,2 hPa 0,0 l/m 8,8 km/h (2 Bft) O-NO 69 0 min 0 W/m 8,4 C 26,5 C 16,1 km/h (3 Bft)
19.04.2018 12:40 25,9 C 25,9 C 36 % 1034,3 hPa 0,0 l/m 6,9 km/h (2 Bft) O-NO 71 0 min 0 W/m 9,7 C 25,9 C 14,5 km/h (3 Bft)
19.04.2018 12:35 25,9 C 25,6 C 37 % 1034,3 hPa 0,0 l/m 5,8 km/h (2 Bft) S-SO 167 0 min 0 W/m 10,1 C 25,9 C 14,5 km/h (3 Bft)
19.04.2018 12:30 25,6 C 25,6 C 37 % 1034,3 hPa 0,0 l/m 2,8 km/h (1 Bft) S 179 0 min 0 W/m 9,8 C 25,6 C 8,0 km/h (2 Bft)
19.04.2018 12:25 25,6 C 25,5 C 37 % 1034,3 hPa 0,0 l/m 4,6 km/h (1 Bft) O-SO 122 0 min 0 W/m 9,8 C 25,6 C 9,7 km/h (2 Bft)
19.04.2018 12:20 25,6 C 25,6 C 36 % 1034,4 hPa 0,0 l/m 3,1 km/h (1 Bft) O-SO 115 0 min 0 W/m 9,4 C 25,6 C 8,0 km/h (2 Bft)
19.04.2018 12:15 25,7 C 25,4 C 37 % 1034,4 hPa 0,0 l/m 3,6 km/h (1 Bft) S-SO 163 0 min 0 W/m 9,9 C 25,7 C 11,3 km/h (2 Bft)
19.04.2018 12:10 25,4 C 25,2 C 37 % 1034,4 hPa 0,0 l/m 3,7 km/h (1 Bft) S 175 0 min 0 W/m 9,6 C 25,4 C 9,7 km/h (2 Bft)
19.04.2018 12:05 25,3 C 25,1 C 37 % 1034,4 hPa 0,0 l/m 2,2 km/h (1 Bft) O 88 0 min 0 W/m 9,6 C 25,3 C 8,0 km/h (2 Bft)
19.04.2018 12:00 25,3 C 25,3 C 36 % 1034,5 hPa 0,0 l/m 4,3 km/h (1 Bft) O-SO 111 0 min 0 W/m 9,1 C 25,3 C 11,3 km/h (2 Bft)
19.04.2018 11:55 25,3 C 24,7 C 38 % 1034,5 hPa 0,0 l/m 5,6 km/h (1 Bft) SO 134 0 min 0 W/m 9,9 C 25,3 C 11,3 km/h (2 Bft)
19.04.2018 11:50 24,7 C 24,5 C 38 % 1034,6 hPa 0,0 l/m 3,4 km/h (1 Bft) SO 144 0 min 0 W/m 9,4 C 24,7 C 9,7 km/h (2 Bft)
19.04.2018 11:45 24,8 C 24,8 C 37 % 1034,6 hPa 0,0 l/m 5,4 km/h (1 Bft) SO 130 0 min 0 W/m 9,1 C 24,8 C 11,3 km/h (2 Bft)
19.04.2018 11:40 25,0 C 24,5 C 39 % 1034,6 hPa 0,0 l/m 4,6 km/h (1 Bft) S-SO 155 0 min 0 W/m 10,1 C 25,0 C 12,9 km/h (3 Bft)
19.04.2018 11:35 24,5 C 24,2 C 40 % 1034,7 hPa 0,0 l/m 6,7 km/h (2 Bft) O-SO 118 0 min 0 W/m 10,0 C 24,5 C 14,5 km/h (3 Bft)
19.04.2018 11:30 24,3 C 23,9 C 41 % 1034,7 hPa 0,0 l/m 5,7 km/h (1 Bft) O-SO 104 0 min 0 W/m 10,2 C 24,3 C 12,9 km/h (3 Bft)
19.04.2018 11:25 23,9 C 23,4 C 43 % 1034,7 hPa 0,0 l/m 3,9 km/h (1 Bft) S-SW 196 0 min 0 W/m 10,5 C 23,9 C 8,0 km/h (2 Bft)
19.04.2018 11:20 23,4 C 23,1 C 46 % 1034,7 hPa 0,0 l/m 2,4 km/h (1 Bft) S-SW 200 0 min 0 W/m 11,1 C 23,4 C 6,4 km/h (2 Bft)
19.04.2018 11:15 23,1 C 22,8 C 43 % 1034,8 hPa 0,0 l/m 4,4 km/h (1 Bft) O 96 0 min 0 W/m 9,8 C 23,1 C 11,3 km/h (2 Bft)
19.04.2018 11:10 22,8 C 22,6 C 43 % 1034,8 hPa 0,0 l/m 3,3 km/h (1 Bft) O-NO 70 0 min 0 W/m 9,6 C 22,8 C 8,0 km/h (2 Bft)
19.04.2018 11:05 22,6 C 22,5 C 43 % 1034,9 hPa 0,0 l/m 4,3 km/h (1 Bft) SO 144 0 min 0 W/m 9,4 C 22,6 C 9,7 km/h (2 Bft)
19.04.2018 11:00 22,5 C 22,5 C 44 % 1034,8 hPa 0,0 l/m 2,3 km/h (1 Bft) O 83 0 min 0 W/m 9,6 C 22,5 C 8,0 km/h (2 Bft)
19.04.2018 10:55 22,7 C 22,7 C 42 % 1034,8 hPa 0,0 l/m 3,4 km/h (1 Bft) O 80 0 min 0 W/m 9,1 C 22,7 C 8,0 km/h (2 Bft)
19.04.2018 10:50 23,1 C 23,1 C 42 % 1034,9 hPa 0,0 l/m 5,0 km/h (1 Bft) O-SO 117 0 min 0 W/m 9,5 C 23,1 C 12,9 km/h (3 Bft)
19.04.2018 10:45 23,4 C 22,9 C 43 % 1034,9 hPa 0,0 l/m 2,4 km/h (1 Bft) S-SO 148 0 min 0 W/m 10,1 C 23,4 C 4,8 km/h (1 Bft)
19.04.2018 10:40 22,9 C 22,6 C 44 % 1035,0 hPa 0,0 l/m 3,4 km/h (1 Bft) S-SO 157 0 min 0 W/m 10,0 C 22,9 C 9,7 km/h (2 Bft)
19.04.2018 10:35 22,6 C 22,4 C 44 % 1035,0 hPa 0,0 l/m 4,9 km/h (1 Bft) O 90 0 min 0 W/m 9,7 C 22,6 C 9,7 km/h (2 Bft)
19.04.2018 10:30 22,4 C 22,1 C 45 % 1034,9 hPa 0,0 l/m 6,3 km/h (2 Bft) O 90 0 min 0 W/m 9,9 C 22,4 C 16,1 km/h (3 Bft)
19.04.2018 10:25 22,1 C 21,8 C 45 % 1034,9 hPa 0,0 l/m 5,0 km/h (1 Bft) S 182 0 min 0 W/m 9,6 C 22,1 C 11,3 km/h (2 Bft)
19.04.2018 10:20 21,9 C 21,6 C 45 % 1034,9 hPa 0,0 l/m 6,9 km/h (2 Bft) S 180 0 min 0 W/m 9,4 C 21,9 C 12,9 km/h (3 Bft)
19.04.2018 10:15 21,6 C 21,6 C 46 % 1035,0 hPa 0,0 l/m 5,3 km/h (1 Bft) S-SO 162 0 min 0 W/m 9,5 C 21,6 C 11,3 km/h (2 Bft)
19.04.2018 10:10 21,6 C 21,6 C 45 % 1034,9 hPa 0,0 l/m 4,8 km/h (1 Bft) SO 143 0 min 0 W/m 9,2 C 21,6 C 11,3 km/h (2 Bft)
19.04.2018 10:05 21,9 C 21,7 C 46 % 1035,0 hPa 0,0 l/m 2,9 km/h (1 Bft) S-SO 151 0 min 0 W/m 9,7 C 21,9 C 6,4 km/h (2 Bft)
19.04.2018 10:00 21,7 C 21,4 C 45 % 1035,0 hPa 0,0 l/m 4,3 km/h (1 Bft) O-NO 77 0 min 0 W/m 9,2 C 21,7 C 11,3 km/h (2 Bft)
19.04.2018 09:55 21,4 C 21,3 C 46 % 1035,0 hPa 0,0 l/m 4,9 km/h (1 Bft) SO 144 0 min 0 W/m 9,3 C 21,4 C 12,9 km/h (3 Bft)
19.04.2018 09:50 21,4 C 21,1 C 46 % 1035,0 hPa 0,0 l/m 5,4 km/h (1 Bft) O-SO 107 0 min 0 W/m 9,3 C 21,4 C 11,3 km/h (2 Bft)
19.04.2018 09:45 21,1 C 20,9 C 46 % 1035,0 hPa 0,0 l/m 3,7 km/h (1 Bft) O-NO 63 0 min 0 W/m 9,0 C 21,1 C 8,0 km/h (2 Bft)
19.04.2018 09:40 21,0 C 20,8 C 47 % 1035,0 hPa 0,0 l/m 4,9 km/h (1 Bft) S 170 0 min 0 W/m 9,3 C 21,0 C 9,7 km/h (2 Bft)
19.04.2018 09:35 20,8 C 20,6 C 48 % 1035,2 hPa 0,0 l/m 3,2 km/h (1 Bft) O-SO 107 0 min 0 W/m 9,4 C 20,8 C 8,0 km/h (2 Bft)
19.04.2018 09:30 20,6 C 20,2 C 49 % 1035,1 hPa 0,0 l/m 4,0 km/h (1 Bft) O 80 0 min 0 W/m 9,5 C 20,6 C 8,0 km/h (2 Bft)
19.04.2018 09:25 20,2 C 19,7 C 51 % 1035,2 hPa 0,0 l/m 2,7 km/h (1 Bft) O-NO 65 0 min 0 W/m 9,7 C 20,2 C 6,4 km/h (2 Bft)
19.04.2018 09:20 19,7 C 19,3 C 53 % 1035,2 hPa 0,0 l/m 2,7 km/h (1 Bft) O 80 0 min 0 W/m 9,8 C 19,7 C 8,0 km/h (2 Bft)
19.04.2018 09:15 19,3 C 19,1 C 55 % 1035,2 hPa 0,0 l/m 2,8 km/h (1 Bft) S 171 0 min 0 W/m 10,0 C 19,3 C 8,0 km/h (2 Bft)
19.04.2018 09:10 19,1 C 18,9 C 57 % 1035,2 hPa 0,0 l/m 1,6 km/h (1 Bft) S 179 0 min 0 W/m 10,4 C 19,1 C 3,2 km/h (1 Bft)
19.04.2018 09:05 18,9 C 18,9 C 57 % 1035,2 hPa 0,0 l/m 2,2 km/h (1 Bft) S 179 0 min 0 W/m 10,2 C 18,9 C 6,4 km/h (2 Bft)
19.04.2018 09:00 18,9 C 18,3 C 58 % 1035,2 hPa 0,0 l/m 2,9 km/h (1 Bft) S 177 0 min 0 W/m 10,5 C 18,9 C 4,8 km/h (1 Bft)
19.04.2018 08:55 18,3 C 18,2 C 58 % 1035,2 hPa 0,0 l/m 2,3 km/h (1 Bft) S 191 0 min 0 W/m 9,9 C 18,3 C 4,8 km/h (1 Bft)
19.04.2018 08:50 18,4 C 18,4 C 59 % 1035,2 hPa 0,0 l/m 2,5 km/h (1 Bft) S 183 0 min 0 W/m 10,2 C 18,4 C 4,8 km/h (1 Bft)
19.04.2018 08:45 18,6 C 18,6 C 57 % 1035,2 hPa 0,0 l/m 4,2 km/h (1 Bft) S 190 0 min 0 W/m 9,9 C 18,6 C 8,0 km/h (2 Bft)
19.04.2018 08:40 18,7 C 18,7 C 58 % 1035,2 hPa 0,0 l/m 2,8 km/h (1 Bft) S-SW 192 0 min 0 W/m 10,3 C 18,7 C 4,8 km/h (1 Bft)
19.04.2018 08:35 18,8 C 18,4 C 56 % 1035,2 hPa 0,0 l/m 2,7 km/h (1 Bft) S 189 0 min 0 W/m 9,8 C 18,8 C 6,4 km/h (2 Bft)
19.04.2018 08:30 18,4 C 17,6 C 58 % 1035,2 hPa 0,0 l/m 2,8 km/h (1 Bft) O-NO 69 0 min 0 W/m 10,0 C 18,4 C 4,8 km/h (1 Bft)
19.04.2018 08:25 17,6 C 16,7 C 60 % 1035,3 hPa 0,0 l/m 1,2 km/h (1 Bft) N-NW 333 0 min 0 W/m 9,7 C 17,6 C 4,8 km/h (1 Bft)
19.04.2018 08:20 16,7 C 15,3 C 60 % 1035,2 hPa 0,0 l/m 2,9 km/h (1 Bft) N-NW 333 0 min 0 W/m 8,9 C 16,7 C 6,4 km/h (2 Bft)
19.04.2018 08:15 15,3 C 13,9 C 67 % 1035,3 hPa 0,0 l/m 0,9 km/h (0 Bft) W 269 0 min 0 W/m 9,2 C 15,3 C 3,2 km/h (1 Bft)
19.04.2018 08:10 13,9 C 13,5 C 72 % 1035,2 hPa 0,0 l/m 0,7 km/h (0 Bft) W 269 0 min 0 W/m 8,9 C 13,9 C 3,2 km/h (1 Bft)
19.04.2018 08:05 13,5 C 13,2 C 74 % 1035,2 hPa 0,0 l/m 1,9 km/h (1 Bft) W 269 0 min 0 W/m 9,0 C 13,5 C 6,4 km/h (2 Bft)
19.04.2018 08:00 13,2 C 12,8 C 75 % 1035,3 hPa 0,0 l/m 3,1 km/h (1 Bft) S 188 0 min 0 W/m 8,9 C 13,2 C 6,4 km/h (2 Bft)
19.04.2018 07:55 12,8 C 12,3 C 76 % 1035,3 hPa 0,0 l/m 2,0 km/h (1 Bft) O 100 0 min 0 W/m 8,7 C 12,8 C 6,4 km/h (2 Bft)
19.04.2018 07:50 12,3 C 11,9 C 78 % 1035,2 hPa 0,0 l/m 1,4 km/h (1 Bft) S-SO 159 0 min 0 W/m 8,6 C 12,3 C 3,2 km/h (1 Bft)
19.04.2018 07:45 11,9 C 11,6 C 80 % 1035,2 hPa 0,0 l/m 3,2 km/h (1 Bft) S-SO 155 0 min 0 W/m 8,6 C 11,9 C 8,0 km/h (2 Bft)
19.04.2018 07:40 11,6 C 11,3 C 82 % 1035,2 hPa 0,0 l/m 0,3 km/h (0 Bft) S-SO 156 0 min 0 W/m 8,6 C 11,6 C 3,2 km/h (1 Bft)
19.04.2018 07:35 11,3 C 11,0 C 83 % 1035,2 hPa 0,0 l/m 1,0 km/h (0 Bft) S-SO 155 0 min 0 W/m 8,5 C 11,3 C 3,2 km/h (1 Bft)
19.04.2018 07:30 11,0 C 10,7 C 84 % 1035,0 hPa 0,0 l/m 2,1 km/h (1 Bft) S-SO 155 0 min 0 W/m 8,4 C 11,0 C 6,4 km/h (2 Bft)
19.04.2018 07:25 10,7 C 10,6 C 85 % 1035,0 hPa 0,0 l/m 1,6 km/h (1 Bft) W-SW 252 0 min 0 W/m 8,3 C 10,7 C 6,4 km/h (2 Bft)
19.04.2018 07:20 10,6 C 10,4 C 85 % 1035,0 hPa 0,0 l/m 2,3 km/h (1 Bft) O-SO 119 0 min 0 W/m 8,2 C 10,6 C 6,4 km/h (2 Bft)
19.04.2018 07:15 10,4 C 10,3 C 85 % 1035,0 hPa 0,0 l/m 2,0 km/h (1 Bft) N-NO 31 0 min 0 W/m 8,0 C 10,4 C 3,2 km/h (1 Bft)
19.04.2018 07:10 10,3 C 10,3 C 85 % 1035,0 hPa 0,0 l/m 0,9 km/h (0 Bft) NW 309 0 min 0 W/m 7,9 C 10,3 C 3,2 km/h (1 Bft)
19.04.2018 07:05 10,3 C 10,3 C 85 % 1034,9 hPa 0,0 l/m 1,3 km/h (1 Bft) NW 309 0 min 0 W/m 7,9 C 10,3 C 3,2 km/h (1 Bft)
19.04.2018 07:00 10,3 C 10,3 C 84 % 1034,9 hPa 0,0 l/m 0,8 km/h (0 Bft) NW 309 0 min 0 W/m 7,7 C 10,3 C 3,2 km/h (1 Bft)
19.04.2018 06:55 10,3 C 10,3 C 84 % 1034,8 hPa 0,0 l/m 1,2 km/h (1 Bft) NW 309 0 min 0 W/m 7,7 C 10,3 C 3,2 km/h (1 Bft)
19.04.2018 06:50 10,4 C 10,3 C 84 % 1034,8 hPa 0,0 l/m 1,6 km/h (1 Bft) NW 309 0 min 0 W/m 7,8 C 10,4 C 4,8 km/h (1 Bft)
19.04.2018 06:45 10,4 C 10,3 C 84 % 1034,8 hPa 0,0 l/m 1,9 km/h (1 Bft) NW 308 0 min 0 W/m 7,8 C 10,4 C 4,8 km/h (1 Bft)
19.04.2018 06:40 10,3 C 10,3 C 85 % 1034,8 hPa 0,0 l/m 2,1 km/h (1 Bft) NW 318 0 min 0 W/m 7,9 C 10,3 C 4,8 km/h (1 Bft)
19.04.2018 06:35 10,3 C 10,2 C 85 % 1034,8 hPa 0,0 l/m 2,4 km/h (1 Bft) NW 319 0 min 0 W/m 7,9 C 10,3 C 4,8 km/h (1 Bft)
19.04.2018 06:30 10,2 C 10,2 C 85 % 1034,8 hPa 0,0 l/m 3,8 km/h (1 Bft) NW 313 0 min 0 W/m 7,8 C 10,2 C 6,4 km/h (2 Bft)
19.04.2018 06:25 10,2 C 10,2 C 85 % 1034,8 hPa 0,0 l/m 3,4 km/h (1 Bft) N-NW 341 0 min 0 W/m 7,8 C 10,2 C 6,4 km/h (2 Bft)
19.04.2018 06:20 10,2 C 10,2 C 85 % 1034,9 hPa 0,0 l/m 2,9 km/h (1 Bft) NW 323 0 min 0 W/m 7,8 C 10,2 C 4,8 km/h (1 Bft)
19.04.2018 06:15 10,2 C 10,2 C 85 % 1034,9 hPa 0,0 l/m 2,0 km/h (1 Bft) NW 323 0 min 0 W/m 7,8 C 10,2 C 3,2 km/h (1 Bft)
19.04.2018 06:10 10,2 C 10,2 C 84 % 1034,8 hPa 0,0 l/m 3,2 km/h (1 Bft) NW 323 0 min 0 W/m 7,6 C 10,2 C 4,8 km/h (1 Bft)
19.04.2018 06:05 10,2 C 10,2 C 84 % 1034,8 hPa 0,0 l/m 2,9 km/h (1 Bft) NW 321 0 min 0 W/m 7,6 C 10,2 C 4,8 km/h (1 Bft)
19.04.2018 06:00 10,2 C 10,2 C 84 % 1034,9 hPa 0,0 l/m 3,3 km/h (1 Bft) N 355 0 min 0 W/m 7,6 C 10,2 C 6,4 km/h (2 Bft)
19.04.2018 05:55 10,2 C 10,2 C 85 % 1034,9 hPa 0,0 l/m 1,8 km/h (1 Bft) N-NW 336 0 min 0 W/m 7,8 C 10,2 C 4,8 km/h (1 Bft)
19.04.2018 05:50 10,2 C 10,1 C 85 % 1034,9 hPa 0,0 l/m 2,4 km/h (1 Bft) N-NW 340 0 min 0 W/m 7,8 C 10,2 C 3,2 km/h (1 Bft)
19.04.2018 05:45 10,1 C 10,1 C 85 % 1034,9 hPa 0,0 l/m 2,7 km/h (1 Bft) N-NW 340 0 min 0 W/m 7,7 C 10,1 C 4,8 km/h (1 Bft)
19.04.2018 05:40 10,1 C 10,0 C 85 % 1034,9 hPa 0,0 l/m 3,2 km/h (1 Bft) NW 312 0 min 0 W/m 7,7 C 10,1 C 4,8 km/h (1 Bft)
19.04.2018 05:35 10,1 C 9,9 C 85 % 1035,0 hPa 0,0 l/m 2,3 km/h (1 Bft) N-NW 327 0 min 0 W/m 7,7 C 10,1 C 4,8 km/h (1 Bft)
19.04.2018 05:30 10,0 C 9,9 C 85 % 1035,0 hPa 0,0 l/m 2,7 km/h (1 Bft) NW 323 0 min 0 W/m 7,6 C 10,0 C 6,4 km/h (2 Bft)
19.04.2018 05:25 9,9 C 9,9 C 85 % 1035,0 hPa 0,0 l/m 2,3 km/h (1 Bft) N 350 0 min 0 W/m 7,5 C 9,9 C 8,0 km/h (2 Bft)
19.04.2018 05:20 9,9 C 9,9 C 85 % 1034,9 hPa 0,0 l/m 2,3 km/h (1 Bft) N-NW 341 0 min 0 W/m 7,5 C 9,9 C 3,2 km/h (1 Bft)
19.04.2018 05:15 9,9 C 9,9 C 85 % 1034,9 hPa 0,0 l/m 3,0 km/h (1 Bft) N-NW 341 0 min 0 W/m 7,5 C 9,9 C 6,4 km/h (2 Bft)
19.04.2018 05:10 9,9 C 9,9 C 84 % 1035,0 hPa 0,0 l/m 2,8 km/h (1 Bft) N 355 0 min 0 W/m 7,3 C 9,9 C 4,8 km/h (1 Bft)
19.04.2018 05:05 10,0 C 10,0 C 84 % 1035,0 hPa 0,0 l/m 2,7 km/h (1 Bft) N 355 0 min 0 W/m 7,4 C 10,0 C 4,8 km/h (1 Bft)
19.04.2018 05:00 10,0 C 10,0 C 84 % 1035,0 hPa 0,0 l/m 2,5 km/h (1 Bft) N 355 0 min 0 W/m 7,4 C 10,0 C 6,4 km/h (2 Bft)
19.04.2018 04:55 10,0 C 9,9 C 84 % 1035,0 hPa 0,0 l/m 3,4 km/h (1 Bft) N 355 0 min 0 W/m 7,4 C 10,0 C 6,4 km/h (2 Bft)
19.04.2018 04:50 10,0 C 10,0 C 84 % 1035,0 hPa 0,0 l/m 3,2 km/h (1 Bft) N 5 0 min 0 W/m 7,4 C 10,0 C 4,8 km/h (1 Bft)
19.04.2018 04:45 10,0 C 10,0 C 83 % 1035,1 hPa 0,0 l/m 1,0 km/h (0 Bft) N-NO 32 0 min 0 W/m 7,2 C 10,0 C 4,8 km/h (1 Bft)
19.04.2018 04:40 10,1 C 10,1 C 83 % 1035,2 hPa 0,0 l/m 1,9 km/h (1 Bft) NO 51 0 min 0 W/m 7,3 C 10,1 C 4,8 km/h (1 Bft)
19.04.2018 04:35 10,1 C 10,1 C 83 % 1035,2 hPa 0,0 l/m 2,7 km/h (1 Bft) N-NW 341 0 min 0 W/m 7,3 C 10,1 C 4,8 km/h (1 Bft)
19.04.2018 04:30 10,2 C 10,2 C 83 % 1035,2 hPa 0,0 l/m 1,4 km/h (1 Bft) NO 38 0 min 0 W/m 7,4 C 10,2 C 3,2 km/h (1 Bft)
19.04.2018 04:25 10,3 C 10,2 C 83 % 1035,2 hPa 0,0 l/m 0,4 km/h (0 Bft) NO 38 0 min 0 W/m 7,5 C 10,3 C 3,2 km/h (1 Bft)
19.04.2018 04:20 10,3 C 10,3 C 83 % 1035,2 hPa 0,0 l/m 1,0 km/h (0 Bft) NO 38 0 min 0 W/m 7,5 C 10,3 C 4,8 km/h (1 Bft)
19.04.2018 04:15 10,3 C 10,2 C 83 % 1035,2 hPa 0,0 l/m 1,4 km/h (1 Bft) N-NO 25 0 min 0 W/m 7,5 C 10,3 C 3,2 km/h (1 Bft)
19.04.2018 04:10 10,3 C 10,3 C 83 % 1035,2 hPa 0,0 l/m 3,3 km/h (1 Bft) NO 39 0 min 0 W/m 7,5 C 10,3 C 6,4 km/h (2 Bft)
19.04.2018 04:05 10,3 C 10,3 C 83 % 1035,3 hPa 0,0 l/m 3,2 km/h (1 Bft) O-NO 74 0 min 0 W/m 7,5 C 10,3 C 6,4 km/h (2 Bft)
19.04.2018 04:00 10,3 C 10,3 C 82 % 1035,2 hPa 0,0 l/m 3,3 km/h (1 Bft) NW 313 0 min 0 W/m 7,4 C 10,3 C 6,4 km/h (2 Bft)
19.04.2018 03:55 10,3 C 10,3 C 82 % 1035,2 hPa 0,0 l/m 2,6 km/h (1 Bft) N 5 0 min 0 W/m 7,4 C 10,3 C 6,4 km/h (2 Bft)
19.04.2018 03:50 10,4 C 10,4 C 82 % 1035,2 hPa 0,0 l/m 2,8 km/h (1 Bft) O 82 0 min 0 W/m 7,5 C 10,4 C 6,4 km/h (2 Bft)
19.04.2018 03:45 10,4 C 10,4 C 82 % 1035,1 hPa 0,0 l/m 1,3 km/h (1 Bft) O-NO 68 0 min 0 W/m 7,5 C 10,4 C 4,8 km/h (1 Bft)
19.04.2018 03:40 10,5 C 10,5 C 81 % 1035,1 hPa 0,0 l/m 2,0 km/h (1 Bft) O-NO 73 0 min 0 W/m 7,4 C 10,5 C 4,8 km/h (1 Bft)
19.04.2018 03:35 10,6 C 10,6 C 81 % 1035,2 hPa 0,0 l/m 2,2 km/h (1 Bft) N-NO 15 0 min 0 W/m 7,5 C 10,6 C 4,8 km/h (1 Bft)
19.04.2018 03:30 10,6 C 10,6 C 81 % 1035,1 hPa 0,0 l/m 1,8 km/h (1 Bft) N-NO 15 0 min 0 W/m 7,5 C 10,6 C 4,8 km/h (1 Bft)
19.04.2018 03:25 10,6 C 10,6 C 81 % 1035,1 hPa 0,0 l/m 2,4 km/h (1 Bft) N 11 0 min 0 W/m 7,5 C 10,6 C 6,4 km/h (2 Bft)
19.04.2018 03:20 10,6 C 10,6 C 81 % 1035,0 hPa 0,0 l/m 3,1 km/h (1 Bft) N 10 0 min 0 W/m 7,5 C 10,6 C 6,4 km/h (2 Bft)
19.04.2018 03:15 10,7 C 10,6 C 81 % 1035,1 hPa 0,0 l/m 2,4 km/h (1 Bft) N-NO 15 0 min 0 W/m 7,6 C 10,7 C 6,4 km/h (2 Bft)
19.04.2018 03:10 10,7 C 10,7 C 81 % 1035,2 hPa 0,0 l/m 3,3 km/h (1 Bft) O-NO 57 0 min 0 W/m 7,6 C 10,7 C 6,4 km/h (2 Bft)
19.04.2018 03:05 10,7 C 10,7 C 81 % 1035,3 hPa 0,0 l/m 2,6 km/h (1 Bft) N-NW 340 0 min 0 W/m 7,6 C 10,7 C 4,8 km/h (1 Bft)
19.04.2018 03:00 10,7 C 10,7 C 81 % 1035,4 hPa 0,0 l/m 1,8 km/h (1 Bft) NW 306 0 min 0 W/m 7,6 C 10,7 C 3,2 km/h (1 Bft)
19.04.2018 02:55 10,8 C 10,7 C 81 % 1035,3 hPa 0,0 l/m 2,2 km/h (1 Bft) NW 306 0 min 0 W/m 7,7 C 10,8 C 4,8 km/h (1 Bft)
19.04.2018 02:50 10,7 C 10,7 C 81 % 1035,4 hPa 0,0 l/m 3,8 km/h (1 Bft) NO 38 0 min 0 W/m 7,6 C 10,7 C 6,4 km/h (2 Bft)
19.04.2018 02:45 10,7 C 10,7 C 81 % 1035,5 hPa 0,0 l/m 3,3 km/h (1 Bft) N 350 0 min 0 W/m 7,6 C 10,7 C 6,4 km/h (2 Bft)
19.04.2018 02:40 10,7 C 10,7 C 81 % 1035,6 hPa 0,0 l/m 2,3 km/h (1 Bft) N 355 0 min 0 W/m 7,6 C 10,7 C 4,8 km/h (1 Bft)
19.04.2018 02:35 10,7 C 10,7 C 80 % 1035,5 hPa 0,0 l/m 2,5 km/h (1 Bft) N 355 0 min 0 W/m 7,4 C 10,7 C 4,8 km/h (1 Bft)
19.04.2018 02:30 10,8 C 10,8 C 80 % 1035,6 hPa 0,0 l/m 2,0 km/h (1 Bft) N-NW 336 0 min 0 W/m 7,5 C 10,8 C 4,8 km/h (1 Bft)
19.04.2018 02:25 10,8 C 10,8 C 80 % 1035,6 hPa 0,0 l/m 1,8 km/h (1 Bft) N-NW 336 0 min 0 W/m 7,5 C 10,8 C 4,8 km/h (1 Bft)
19.04.2018 02:20 10,8 C 10,8 C 80 % 1035,7 hPa 0,0 l/m 2,1 km/h (1 Bft) NW 311 0 min 0 W/m 7,5 C 10,8 C 4,8 km/h (1 Bft)
19.04.2018 02:15 10,8 C 10,8 C 80 % 1035,7 hPa 0,0 l/m 1,8 km/h (1 Bft) NW 311 0 min 0 W/m 7,5 C 10,8 C 3,2 km/h (1 Bft)
19.04.2018 02:10 10,8 C 10,8 C 80 % 1035,8 hPa 0,0 l/m 2,5 km/h (1 Bft) NW 311 0 min 0 W/m 7,5 C 10,8 C 4,8 km/h (1 Bft)
19.04.2018 02:05 10,8 C 10,8 C 79 % 1035,8 hPa 0,0 l/m 1,5 km/h (1 Bft) N 360 0 min 0 W/m 7,3 C 10,8 C 4,8 km/h (1 Bft)
19.04.2018 02:00 10,9 C 10,9 C 79 % 1035,8 hPa 0,0 l/m 1,4 km/h (1 Bft) N 5 0 min 0 W/m 7,4 C 10,9 C 3,2 km/h (1 Bft)
19.04.2018 01:55 11,0 C 11,0 C 79 % 1035,8 hPa 0,0 l/m 2,0 km/h (1 Bft) N 5 0 min 0 W/m 7,5 C 11,0 C 4,8 km/h (1 Bft)
19.04.2018 01:50 11,1 C 11,1 C 78 % 1035,8 hPa 0,0 l/m 2,2 km/h (1 Bft) N 5 0 min 0 W/m 7,4 C 11,1 C 3,2 km/h (1 Bft)
19.04.2018 01:45 11,2 C 11,2 C 78 % 1035,8 hPa 0,0 l/m 2,5 km/h (1 Bft) N 5 0 min 0 W/m 7,5 C 11,2 C 3,2 km/h (1 Bft)
19.04.2018 01:40 11,2 C 11,2 C 78 % 1035,8 hPa 0,0 l/m 1,9 km/h (1 Bft) O-NO 67 0 min 0 W/m 7,5 C 11,2 C 3,2 km/h (1 Bft)
19.04.2018 01:35 11,3 C 11,2 C 78 % 1035,9 hPa 0,0 l/m 1,4 km/h (1 Bft) O-NO 67 0 min 0 W/m 7,6 C 11,3 C 4,8 km/h (1 Bft)
19.04.2018 01:30 11,3 C 11,3 C 78 % 1035,8 hPa 0,0 l/m 1,0 km/h (0 Bft) O-NO 67 0 min 0 W/m 7,6 C 11,3 C 3,2 km/h (1 Bft)
19.04.2018 01:25 11,3 C 11,3 C 77 % 1035,9 hPa 0,0 l/m 0,4 km/h (0 Bft) O-NO 67 0 min 0 W/m 7,4 C 11,3 C 1,6 km/h (1 Bft)
19.04.2018 01:20 11,4 C 11,4 C 77 % 1035,9 hPa 0,0 l/m 1,2 km/h (1 Bft) O-NO 67 0 min 0 W/m 7,5 C 11,4 C 3,2 km/h (1 Bft)
19.04.2018 01:15 11,4 C 11,4 C 77 % 1035,9 hPa 0,0 l/m 1,7 km/h (1 Bft) O-NO 67 0 min 0 W/m 7,5 C 11,4 C 4,8 km/h (1 Bft)
19.04.2018 01:10 11,6 C 11,6 C 77 % 1035,8 hPa 0,0 l/m 1,9 km/h (1 Bft) O-NO 65 0 min 0 W/m 7,7 C 11,6 C 4,8 km/h (1 Bft)
19.04.2018 01:05 11,7 C 11,7 C 76 % 1035,9 hPa 0,0 l/m 1,0 km/h (0 Bft) O-NO 66 0 min 0 W/m 7,6 C 11,7 C 3,2 km/h (1 Bft)
19.04.2018 01:00 11,7 C 11,7 C 76 % 1035,9 hPa 0,0 l/m 1,2 km/h (1 Bft) O-NO 66 0 min 0 W/m 7,6 C 11,7 C 4,8 km/h (1 Bft)
19.04.2018 00:55 11,8 C 11,8 C 76 % 1036,0 hPa 0,0 l/m 1,7 km/h (1 Bft) N-NO 24 0 min 0 W/m 7,7 C 11,8 C 4,8 km/h (1 Bft)
19.04.2018 00:50 11,8 C 11,8 C 76 % 1035,9 hPa 0,0 l/m 1,6 km/h (1 Bft) N-NO 24 0 min 0 W/m 7,7 C 11,8 C 3,2 km/h (1 Bft)
19.04.2018 00:45 11,9 C 11,9 C 76 % 1035,9 hPa 0,0 l/m 0,6 km/h (0 Bft) N-NO 24 0 min 0 W/m 7,8 C 11,9 C 1,6 km/h (1 Bft)
19.04.2018 00:40 11,9 C 11,9 C 76 % 1035,9 hPa 0,0 l/m 1,1 km/h (1 Bft) N-NO 24 0 min 0 W/m 7,8 C 11,9 C 3,2 km/h (1 Bft)
19.04.2018 00:35 12,0 C 12,0 C 75 % 1035,9 hPa 0,0 l/m 1,5 km/h (1 Bft) NO 53 0 min 0 W/m 7,7 C 12,0 C 3,2 km/h (1 Bft)
19.04.2018 00:30 12,1 C 12,1 C 75 % 1035,8 hPa 0,0 l/m 1,1 km/h (1 Bft) NO 52 0 min 0 W/m 7,8 C 12,1 C 3,2 km/h (1 Bft)
19.04.2018 00:25 12,2 C 12,2 C 75 % 1035,9 hPa 0,0 l/m 1,7 km/h (1 Bft) NO 52 0 min 0 W/m 7,9 C 12,2 C 4,8 km/h (1 Bft)
19.04.2018 00:20 12,3 C 12,3 C 74 % 1035,9 hPa 0,0 l/m 1,5 km/h (1 Bft) NO 51 0 min 0 W/m 7,8 C 12,3 C 3,2 km/h (1 Bft)
19.04.2018 00:15 12,3 C 12,3 C 73 % 1035,9 hPa 0,0 l/m 1,4 km/h (1 Bft) NO 53 0 min 0 W/m 7,6 C 12,3 C 3,2 km/h (1 Bft)
19.04.2018 00:10 12,4 C 12,4 C 74 % 1035,9 hPa 0,0 l/m 2,0 km/h (1 Bft) NO 53 0 min 0 W/m 7,9 C 12,4 C 3,2 km/h (1 Bft)
19.04.2018 00:05 12,5 C 12,5 C 73 % 1035,9 hPa 0,0 l/m 2,0 km/h (1 Bft) NO 53 0 min 0 W/m 7,8 C 12,5 C 3,2 km/h (1 Bft)
19.04.2018 00:00 12,6 C 12,6 C 73 % 1035,9 hPa 0,0 l/m 1,8 km/h (1 Bft) NO 53 0 min 0 W/m 7,9 C 12,6 C 4,8 km/h (1 Bft)
_ Min-Zeit 04:55 04:55 13:10 13:10 - 07:40 - - - - 13:10 05:10 00:45
Minimum _ 9,9 C 9,9 C 28 % 1034,0 hPa - 0,3 km/h (0 Bft) - - - - 7,1 C 9,9 C 1,6 km/h (1 Bft)
_ Max-Zeit 13:10 13:05 05:15 00:55 00:00 13:10 - - 00:00 00:00 11:20 13:10 13:10
Maximum _ 27,2 C 26,9 C 85 % 1036,0 hPa 0,0 l/m 11,4 km/h
NO (2 Bft)
- - 0 min 0 W/m 11,1 C 27,2 C 19,3 km/h
O-NO (3 Bft)
Durchschnitt _ 15,3 C 15,1 C 67 % 1035,1 hPa #0,0 l/m 2,9 km/h (1 Bft) NW - #0 min. 0 W/m 8,4 C 15,3 C 6,6 km/h (2 Bft)